TURKU/ABO current weather conditions

sailwx.info

Wind from 130 at 6 knots

Air temperature -0.0° C
Visibility: greater than 5.4 NM
Dewpoint -2.0° C

Last reported at 2018-Dec-17 17:50 UTC.
Time now 2018-Dec-17 19:16 UTC

Location: N 60°31' E 022°16'.
View on Google Maps.

See reports from other nearby stations

  
Tides and Currents Weather Stations Pressure Air Temp Water Temp Dewpoint Dewpoint Depression Visibility Wind Speed Wind Dir Waves Ship Positions
date/time (UTC)wind fromknots sea level pressurealtimeterstation pressurevisibilityair tempwater tempwave heightnotes
2018-Dec-17 17:50 130 6 5.4-0.0
2018-Dec-17 17:20 120 6 5.4-0.0
2018-Dec-17 16:50 130 5 5.4-0.0
2018-Dec-17 16:20 130 6 5.4-0.0
2018-Dec-17 15:50 120 5 5.4-0.0
2018-Dec-17 15:20 120 5 5.4-0.0
2018-Dec-17 14:50 120 5 5.4-0.0
2018-Dec-17 14:20 120 5 5.4-1.0
2018-Dec-17 13:50 120 4 5.4-1.0
2018-Dec-17 13:20 120 4 5.4-1.0
2018-Dec-17 12:50 130 5 5.4-1.0
2018-Dec-17 12:20 130 5 5.4-1.0
2018-Dec-17 11:50 130 5 5.4-0.0
2018-Dec-17 11:20 130 6 5.4-0.0 Light snow.
2018-Dec-17 10:50 130 6 5.4-0.0 Light snow.
2018-Dec-17 10:20 120 6 5.4-0.0 Light snow.
2018-Dec-17 09:50 130 5 3.2-0.0 Light snow.
2018-Dec-17 09:20 120 6 4.9-0.0 Light snow.
2018-Dec-17 08:50 120 6 5.4-0.0 Light snow.
2018-Dec-17 08:20 120 5 5.4-1.0 Light snow.
2018-Dec-17 07:50 120 5 5.4-1.0 Light snow.
2018-Dec-17 07:20 110 5 5.4-1.0
2018-Dec-17 06:50 120 5 5.4-0.0
2018-Dec-17 06:20 120 5 5.4-0.0
2018-Dec-17 05:50 130 6 5.4-0.0
2018-Dec-17 05:20 130 6 5.4-1.0
2018-Dec-17 04:50 120 6 3.8-1.0 Light rain snow.
2018-Dec-17 04:20 120 5 2.1-1.0 Light snow.
2018-Dec-17 03:50 120 6 5.4-1.0 Light snow.
2018-Dec-17 03:20 110 6 2.7-1.0 Light snow.
2018-Dec-17 02:50 110 6 2.7-1.0 Light rain snow.
2018-Dec-17 02:20 110 7 2.1-1.0 Light snow.
2018-Dec-17 01:50 120 6 1.3-1.0 Light snow.
2018-Dec-17 01:20 110 7 2.4-1.0 Light snow.
2018-Dec-17 00:50 120 7 2.3-1.0 Light snow.
2018-Dec-17 00:20 120 7 1.4-1.0 Light snow.
2018-Dec-16 23:50 120 6 1.3-1.0 Light snow.
2018-Dec-16 23:20 120 6 1.2-2.0 Light snow.
2018-Dec-16 22:50 110 7 2.1-2.0 Light snow.
2018-Dec-16 22:20 110 8 2.2-2.0 Light snow.
2018-Dec-16 21:50 110 9 2.4-2.0 Light snow.
2018-Dec-16 21:20 100 8 2.0-3.0 Light snow.
2018-Dec-16 20:50 100 8 3.2-3.0 Light snow.
2018-Dec-16 20:20 100 8 5.4-3.0 Light snow.
2018-Dec-16 19:50 100 8 5.4-3.0
2018-Dec-16 19:20 100 11 5.4-4.0
2018-Dec-16 18:50 090 12 5.4-4.0
2018-Dec-16 18:20 100 12 5.4-4.0
2018-Dec-16 17:50 090 12 5.4-4.0
2018-Dec-16 17:20 100 9 5.4-4.0
2018-Dec-16 16:50 100 9 5.4-4.0
2018-Dec-16 16:20 110 9 5.4-4.0
2018-Dec-16 15:50 110 8 5.4-4.0
2018-Dec-16 15:20 110 7 5.4-4.0
2018-Dec-16 14:50 100 11 5.4-4.0
2018-Dec-16 14:20 090 9 5.4-4.0
2018-Dec-16 13:50 100 7 5.4-4.0
2018-Dec-16 13:20 090 7 5.4-4.0
2018-Dec-16 12:50 090 7 5.4-4.0
2018-Dec-16 12:20 090 7 5.4-4.0
2018-Dec-16 11:50 080 7 5.4-4.0
2018-Dec-16 11:20 090 7 5.4-4.0
2018-Dec-16 10:50 080 7 5.4-4.0
2018-Dec-16 10:20 080 8 5.4-4.0
2018-Dec-16 09:50 070 7 5.4-4.0
2018-Dec-16 09:20 110 7 5.4-4.0
2018-Dec-16 08:50 110 6 5.4-4.0
2018-Dec-16 08:20 110 8 5.4-4.0
2018-Dec-16 07:50 100 6 5.4-3.0
2018-Dec-16 07:20 100 8 5.4-3.0
2018-Dec-16 06:50 100 9 5.4-3.0
2018-Dec-16 06:20 110 7 5.4-3.0
2018-Dec-16 05:50 110 6 5.4-3.0
2018-Dec-16 05:20 120 6 5.4-3.0
2018-Dec-16 04:50 120 6 5.4-3.0
2018-Dec-16 04:20 120 5 5.4-3.0
2018-Dec-16 03:50 110 6 5.4-3.0
2018-Dec-16 03:20 110 6 5.4-3.0
2018-Dec-16 02:50 110 4 5.4-3.0
2018-Dec-16 02:20 110 4 5.4-3.0
2018-Dec-16 01:50 120 4 5.4-3.0
2018-Dec-16 01:20 120 5 5.4-3.0
2018-Dec-16 00:50 120 4 5.4-3.0
2018-Dec-16 00:20 130 5 5.4-3.0
2018-Dec-15 23:50 120 5 5.4-3.0
2018-Dec-15 23:20 100 4 5.4-3.0
2018-Dec-15 22:50 090 5 5.4-3.0
2018-Dec-15 22:20 100 5 5.4-3.0
2018-Dec-15 21:50 090 5 5.4-3.0
2018-Dec-15 21:20 080 5 5.4-4.0
2018-Dec-15 20:50 080 5 5.4-4.0
2018-Dec-15 20:20 080 4 5.4-4.0
2018-Dec-15 19:50 090 4 5.4-4.0
2018-Dec-15 19:20 080 4 5.4-4.0